Location: Unspecified
(0.0000°N, 0.0000°E)
Time: 19:23:45
(UTC+00:00)

ARIANE 2 DEB - Pass Details

Date: 08 March 2026
Orbit: 701 x 35694 km, 8.0° (Epoch: 21 April)

Event Time Altitude Azimuth Distance (km) Brightness Sun altitude
Rises 16:55:29 0° 280° (W) 7,443 ? 18.7°
Reaches altitude 10° 16:58:30 10° 282° (WNW) 7,316 ? 18.0°
Maximum altitude 19:42:47 87° 342° (NNW) 30,384 ? -22.9°
Enters shadow 01:32:55 51° 260° (W) 21,857 ? -69.0°
Exits shadow 02:28:25 63° 244° (WSW) 10,709 ? -55.3°
Drops below altitude 10° 03:02:14 10° 102° (ESE) 4,849 ? -46.9°
Sets 03:04:15 0° 100° (E) 5,259 ? -46.4°
